Content
SEND FEEDBACK

Daily
Averages
Monthly
Summary
Canada

VANCOUVER, BRITISH COLUMBIA


Home > North America > Canada > British Columbia
Elevation: 7 feet     Latitude: 49 11N     Longitude: 123 10W

WEATHER
 
SELECT A DAY
Number of Records: 249,675;   Date Range: 5/15/97 - 8/27/14
 
SHARE

PRINT THIS DATA

[ ← Previous Day ]
WEATHER ALMANAC - MAY 14, 2013
[ Next Day → ]
[ °C ]   °F
Weather ElementAverageHighLow
Temperature53.8 °F60.8 °F (4:55 pm)48.2 °F (3:15 am)
Dewpoint42.1 °F46.4 °F (7:55 am)37.4 °F (6:15 pm)
Humidity65.9 %87 % (5:15 am)42 % (6:15 pm)
Barometer30.17 in30.21 in (7:15 am)30.11 in (11:35 pm)
Wind Speed5.8 mph13.8 mph (5:35 am)
Wind Gust19.6 mph (12:55 am)
Weather ElementAverage
Visibility9.9 mi
Wind DirectionSE (139.6 °)

Weather ElementTotal
Precipitation---
Heating Degree Days10.5 (Base 65)
Growing Degree Days4.5 (Base 50)
Averaged from 68 records on May 14, 2013
WEATHER CONDITIONS BREAKOUT
WIND DIRECTION BREAKOUT
WEATHER BY HOUR - MAY 14, 2013
[ °C ]   °F
Local TimeTemperatureDewpointHumidityBarometerVisibilityWind DirectionWind SpeedGust SpeedPrecipitationEventsConditions
12:35 AM50.0 °F41.0 °F71 %30.16 in10.0 miSSW (210°)8.1 mphClear
12:55 AM50.0 °F39.2 °F66 %30.15 in10.0 miSSW (210°)10.4 mph19.6 mphClear
1:15 AM50.0 °F39.2 °F66 %30.16 in10.0 miSSW (200°)9.2 mphClear
1:35 AM50.0 °F41.0 °F71 %30.16 in10.0 miSSW (200°)6.9 mphClear
1:55 AM50.0 °F41.0 °F71 %30.16 in10.0 miSW (220°)10.4 mphClear
2:15 AM50.0 °F41.0 °F71 %30.16 in10.0 miSSW (200°)8.1 mph16.1 mphClear
2:35 AM50.0 °F41.0 °F71 %30.17 in10.0 miSSW (200°)8.1 mphClear
2:55 AM50.0 °F41.0 °F71 %30.17 in10.0 miSSW (200°)10.4 mphPartly Cloudy
3:15 AM48.2 °F42.8 °F82 %30.17 in10.0 miSSW (200°)8.1 mphPartly Cloudy
3:35 AM48.2 °F42.8 °F82 %30.17 in10.0 miSSW (200°)9.2 mphPartly Cloudy
3:55 AM50.0 °F42.8 °F76 %30.18 in10.0 miSW (220°)9.2 mphScattered Clouds
4:15 AM50.0 °F42.8 °F76 %30.19 in10.0 miSouth (190°)9.2 mphScattered Clouds
4:35 AM50.0 °F42.8 °F76 %30.19 in10.0 miSouth (190°)11.5 mphMostly Cloudy
4:55 AM50.0 °F44.6 °F82 %30.19 in10.0 miSSW (210°)10.4 mphMostly Cloudy
5:15 AM48.2 °F44.6 °F87 %30.19 in10.0 miSouth (190°)10.4 mphMostly Cloudy
5:35 AM48.2 °F42.8 °F82 %30.19 in10.0 miSSW (210°)13.8 mph17.3 mphScattered Clouds
5:55 AM50.0 °F42.8 °F76 %30.19 in10.0 miSSW (210°)8.1 mphMostly Cloudy
6:15 AM48.2 °F44.6 °F87 %30.20 in10.0 miSouth (190°)5.8 mphMostly Cloudy
6:35 AM48.2 °F44.6 °F87 %30.20 in8.0 miSouth (180°)6.9 mphRainLight Rain
6:55 AM48.2 °F44.6 °F87 %30.20 in10.0 miSSE (160°)4.6 mphScattered Clouds
7:15 AM48.2 °F44.6 °F87 %30.21 in10.0 miSouth (190°)9.2 mphScattered Clouds
7:35 AM48.2 °F44.6 °F87 %30.21 in10.0 miSouth (190°)9.2 mphScattered Clouds
7:55 AM50.0 °F46.4 °F87 %30.21 in9.0 miSouth (190°)8.1 mphScattered Clouds
8:15 AM50.0 °F46.4 °F87 %30.21 in10.0 miSouth (190°)8.1 mphPartly Cloudy
8:35 AM50.0 °F44.6 °F82 %30.21 in10.0 miSouth (180°)8.1 mphClear
8:55 AM50.0 °F44.6 °F82 %30.21 in9.0 miSouth (190°)9.2 mphClear
9:15 AM53.6 °F44.6 °F72 %30.20 in10.0 miSouth (190°)9.2 mphClear
9:35 AM53.6 °F44.6 °F72 %30.20 in10.0 miSouth (190°)9.2 mphClear
9:55 AM53.6 °F44.6 °F72 %30.20 in10.0 miSouth (190°)10.4 mphClear
10:15 AM55.4 °F44.6 °F67 %30.20 in10.0 miSouth (170°)5.8 mphClear
10:35 AM55.4 °F44.6 °F67 %30.20 in9.0 miSSE (160°)3.5 mphClear
10:55 AM55.4 °F44.6 °F67 %30.21 in10.0 miSouth (170°)4.6 mphClear
11:15 AM55.4 °F44.6 °F67 %30.20 in10.0 miSSW (200°)6.9 mphPartly Cloudy
11:35 AM55.4 °F44.6 °F67 %30.20 in10.0 miSSW (200°)6.9 mphPartly Cloudy
11:55 AM57.2 °F46.4 °F67 %30.20 in9.0 miSouth (180°)3.5 mphClear
12:15 PM55.4 °F44.6 °F67 %30.20 in10.0 miSSW (210°)4.6 mphClear
12:35 PM55.4 °F44.6 °F67 %30.20 in10.0 miSSW (210°)5.8 mphPartly Cloudy
12:55 PM57.2 °F44.6 °F63 %30.19 in10.0 miSE (140°)3.5 mphPartly Cloudy
1:15 PM57.2 °F41.0 °F55 %30.19 in10.0 miCalmPartly Cloudy
1:35 PM57.2 °F44.6 °F63 %30.18 in10.0 miEast (80°)4.6 mphPartly Cloudy
1:55 PM57.2 °F42.8 °F59 %30.18 in10.0 miNE (50°)6.9 mphPartly Cloudy
2:15 PM57.2 °F41.0 °F55 %30.17 in10.0 miENE (60°)6.9 mphPartly Cloudy
2:35 PM57.2 °F41.0 °F55 %30.17 in10.0 miCalmPartly Cloudy
2:55 PM59.0 °F41.0 °F51 %30.17 in10.0 miEast (100°)3.5 mphPartly Cloudy
3:15 PM59.0 °F41.0 °F51 %30.16 in10.0 miSSW (200°)5.8 mphClear
3:35 PM59.0 °F41.0 °F51 %30.16 in10.0 miCalmClear
4:15 PM59.0 °F41.0 °F51 %30.14 in10.0 miSouth (190°)5.8 mphClear
4:35 PM59.0 °F39.2 °F48 %30.14 in10.0 miSouth (190°)9.2 mphClear
4:55 PM60.8 °F41.0 °F48 %30.14 in10.0 miSouth (190°)6.9 mphClear
5:15 PM59.0 °F39.2 °F48 %30.14 in10.0 miSSW (200°)5.8 mphClear
5:35 PM60.8 °F39.2 °F45 %30.14 in10.0 miCalmClear
5:55 PM59.0 °F39.2 °F48 %30.14 in10.0 miSE (140°)3.5 mphClear
6:15 PM60.8 °F37.4 °F42 %30.13 in10.0 miSSW (200°)6.9 mphClear
6:35 PM59.0 °F37.4 °F45 %30.13 in10.0 miSouth (190°)5.8 mphClear
6:55 PM59.0 °F37.4 °F45 %30.13 in10.0 miSouth (170°)3.5 mphClear
7:15 PM57.2 °F37.4 °F48 %30.13 in10.0 miCalmClear
7:35 PM57.2 °F39.2 °F51 %30.13 in10.0 miSSW (200°)5.8 mphClear
7:55 PM57.2 °F39.2 °F51 %30.13 in10.0 miCalmClear
8:15 PM55.4 °F41.0 °F58 %30.13 in10.0 miCalmPartly Cloudy
8:35 PM55.4 °F39.2 °F54 %30.13 in10.0 miCalmMostly Cloudy
9:15 PM53.6 °F41.0 °F62 %30.13 in10.0 miCalmClear
9:35 PM55.4 °F39.2 °F54 %30.13 in10.0 miCalmClear
9:55 PM53.6 °F39.2 °F58 %30.13 in10.0 miNorthClear
10:15 PM53.6 °F41.0 °F62 %30.13 in10.0 miCalmMostly Cloudy
10:35 PM53.6 °F41.0 °F62 %30.12 in10.0 miNorthOvercast
10:55 PM53.6 °F41.0 °F62 %30.12 in10.0 miCalmMostly Cloudy
11:15 PM53.6 °F42.8 °F67 %30.12 in10.0 miCalmScattered Clouds
11:35 PM53.6 °F42.8 °F67 %30.11 in10.0 miCalmPartly Cloudy
Hourly data recorded from CZBB, located miles away from Vancouver, British Columbia







STORIES FROM OUR PARTNERS